Location: Strawberry
(45.6646°N, 111.9596°W)
Time: 02:11:32
(UTC+00:00)

FO-99 - Visible Passes

Search period start: 10 December 2022 00:00
Search period end: 20 December 2022 00:00
Orbit: 447 x 469 km, 97.1° (Epoch: 09 December)

Date Brightness Start Highest point End Pass type
(mag) Time Alt. Az. Time Alt. Az. Time Alt. Az.
12 Dec ? 14:18:15 10° ENE 14:20:07 14° E 14:21:57 10° ESE visible
15 Dec ? 14:13:58 10° ENE 14:15:25 12° E 14:16:52 10° ESE visible
18 Dec ? 14:09:40 10° ENE 14:10:24 11° E 14:11:09 10° ESE visible
